Showing default

OPS 9342 (IDSCS 20), 3285

Orbit data source: Space-Track

OPS 9342 (IDSCS 20), 3285 is a payload satellite owned by SAMSO (US) in GEO that was launched on Thu, 13 Jun 1968 UTC via a TITAN IIIC launch vehicle from the Air Force Eastern Test Range (AFETR). Payload-class satellites include a variety of spacecraft equipped with specific instruments for various scientific and technological missions. These include communications satellites like Starlink; space stations such as the ISS; scientific satellites like the Hubble; Earth observation satellites from companies like Planet Labs, Umbra, and HawkEye 360; GPS; miniature CubeSats for education and research; and military/defense satellites.

Not visible in the next 10 days
Identifier
3285, 1968-050B
Orbit
GEO
Country
Flag of USUS
Related business
Manufacturer
Philco-Ford
Mission
Non-operational spacecraft
Bus & Motor
IDCSP, Unknown motor
Mass
45 kg wet, 45 kg dry
Launch date (UTC)
1968-06-13 (58 years ago)
Launch vehicle
TITAN IIIC
Launch site
Air Force Eastern Test Range (AFETR)
Object type
Payload
Rocket body
Debris
Shape & HBR
POLY, 1.1 m
Radar Cross Section
Medium (>0.1 m² and <1 m²)

Expand to show TLE details & history
Last TLE update: 5 days ago

TLE from 5 days ago
0 OPS 9342 (IDSCS 20)
1 03285U 68050B   26249.73560228 -.00000079  00000-0  00000-0 0  9990
2 03285   7.3997  50.9151 0016587 155.8292  49.6734  1.07818722229041
Epoch: 2026-09-06T17:39Z
TLE epoch observation values (Epoch: 2026-09-06T17:39:16.036Z)
Latitude
-3.18163°
Longitude
5.73122°
Altitude
33,752.435 km
Speed
3.153 km/s
True Right ascension
17h 05m 29s
True Declination
-3° 10' 42"
Sunlit
Object was in daylight at epoch
Visualization orbit readout
Latitude
Unknown
Longitude
Unknown
Altitude
Unknown
Speed
Unknown
Apparent Right ascension
Unknown
Apparent Declination
Unknown
Sunlit
N/A
Visualization observer readout
Local Sidereal Time
03:40:12
Azimuth
Unknown
Elevation
Unknown
Doppler factor
Unknown
Orbital elements
Apogee altitude
33,863.037 km
Perigee altitude
33,729.762 km
Semi-major axis
40,174.537 km
Eccentricity
0.00166
Inclination
7.3997°
RAAN
50.9151°
Arg. of periapsis
155.8292°
True anomaly
49.8185°
Mean anomaly
49.6734°
Eccentric anomaly
49.74593°
Mean motion
0.26954 °/min
Orbital period
1,335.63 mins
BSTAR
0
Loading maneuver chart data...
Computing Atmospheric mass density...
Loading historical data...
Loading historical data...
Loading historical data...
Loading historical data...
Loading historical data...
Loading historical data...
Loading historical data...

Documentation

Showing up to 5 results
|